EW6800 Weather Reports


Display with metric or nautical units.
time (UTC)temp
F
wind
direction
speed
MPH
gust
MPH
rain 1hr
in
rain 24hr
in
rain mn
in
humidity
%
barometer
mb
20260503215545 53 211 0.0 4.0 0.00 0.01 0.01 80 1013.3
20260503215040 53 0 1.0 5.0 0.00 0.01 0.01 79 1013.2
20260503214551 53 201 2.0 5.0 0.00 0.01 0.01 78 1013.3
20260503214044 53 204 2.0 5.0 0.00 0.01 0.01 77 1013.2
20260503213548 53 0 1.0 4.0 0.00 0.01 0.01 77 1013.2
20260503213050 53 225 2.0 5.0 0.00 0.01 0.01 76 1013.3
20260503212544 53 196 1.0 5.0 0.00 0.01 0.01 74 1013.2
20260503212043 54 225 2.0 5.0 0.00 0.01 0.01 74 1013.1
20260503211549 54 215 2.0 5.0 0.00 0.01 0.01 73 1013.1
20260503211043 53 180 1.0 5.0 0.00 0.01 0.01 74 1013.0
20260503210544 53 0 2.0 5.0 0.00 0.01 0.01 75 1013.1
20260503210055 53 213 1.0 4.0 0.00 0.01 0.01 75 1013.1
20260503205544 53 0 0.0 5.0 0.00 0.01 0.01 78 1013.0
20260503205043 53 182 1.0 5.0 0.00 0.01 0.01 77 1013.1
20260503204602 53 108 1.0 4.0 0.00 0.01 0.01 79 1013.1
20260503204046 52 0 0.0 4.0 0.00 0.01 0.01 80 1013.1
20260503203543 52 0 0.0 4.0 0.00 0.01 0.01 79 1013.1
20260503203059 52 205 0.0 2.0 0.00 0.01 0.01 83 1013.1
20260503202540 52 0 0.0 2.0 0.00 0.01 0.01 82 1013.2
20260503202040 52 232 0.0 5.0 0.00 0.01 0.01 80 1013.2
20260503201549 52 227 0.0 5.0 0.00 0.01 0.01 80 1013.3
20260503201045 52 0 0.0 3.0 0.00 0.01 0.01 80 1013.2
20260503200544 52 201 0.0 3.0 0.00 0.01 0.01 79 1013.1
20260503200053 52 212 0.0 2.0 0.00 0.01 0.01 79 1013.2
20260503195545 52 132 0.0 3.0 0.00 0.01 0.01 81 1013.2
20260503195044 52 0 0.0 3.0 0.00 0.01 0.01 80 1013.2
20260503194605 53 0 0.0 3.0 0.00 0.01 0.01 80 1013.3
20260503194044 53 132 0.0 3.0 0.00 0.01 0.01 82 1013.2
20260503193544 53 0 0.0 1.0 0.00 0.01 0.01 82 1013.3
20260503193051 52 0 0.0 2.0 0.00 0.01 0.01 80 1013.2
20260503192543 52 0 0.0 2.0 0.00 0.01 0.01 81 1013.2
20260503192043 52 101 0.0 3.0 0.00 0.01 0.01 82 1013.2
20260503191554 52 0 0.0 3.0 0.00 0.01 0.01 82 1013.3
20260503191043 52 101 0.0 3.0 0.00 0.01 0.01 82 1013.3
20260503190543 52 0 0.0 0.0 0.00 0.01 0.01 83 1013.3
20260503190059 51 0 0.0 0.0 0.00 0.01 0.01 82 1013.3
20260503185545 51 0 0.0 0.0 0.00 0.01 0.01 82 1013.3
20260503185043 51 0 0.0 0.0 0.00 0.01 0.01 83 1013.3
20260503184600 51 0 0.0 0.0 0.00 0.01 0.01 84 1013.2
20260503184044 51 0 0.0 2.0 0.00 0.01 0.01 87 1013.2
20260503183543 51 0 0.0 4.0 0.00 0.01 0.01 86 1013.2
20260503183105 51 0 0.0 4.0 0.00 0.01 0.01 87 1013.2
20260503182543 51 223 0.0 3.0 0.00 0.01 0.01 89 1013.1
20260503182043 51 0 1.0 3.0 0.00 0.01 0.01 90 1013.1
20260503181552 51 0 0.0 3.0 0.00 0.01 0.01 90 1013.1
20260503181044 50 176 1.0 5.0 0.00 0.01 0.01 91 1013.1
20260503180543 50 280 1.0 5.0 0.00 0.01 0.01 92 1013.1
20260503180105 49 0 1.0 3.0 0.00 0.01 0.01 93 1013.1
20260503175544 49 195 1.0 6.0 0.00 0.01 0.01 95 1013.1
20260503175045 49 227 1.0 6.0 0.00 0.01 0.01 95 1013.2
20260503174551 49 111 1.0 4.0 0.00 0.01 0.01 96 1013.1
20260503174044 49 209 1.0 3.0 0.00 0.01 0.01 96 1013.1
20260503173544 48 143 0.0 2.0 0.00 0.01 0.01 96 1013.1
20260503173144 49 0 0.0 3.0 0.00 0.01 0.01 96 1013.2
20260503172544 48 0 0.0 3.0 0.00 0.01 0.01 96 1013.1
20260503172044 48 263 0.0 1.0 0.00 0.01 0.01 96 1013.2
20260503171552 48 0 0.0 2.0 0.01 0.01 0.01 97 1013.2
20260503171045 48 263 0.0 2.0 0.01 0.01 0.01 97 1013.2
20260503170544 48 0 0.0 2.0 0.01 0.01 0.01 96 1013.2
20260503150544 47 0 1.0 2.0 0.00 0.00 0.00 97 1012.3
20260503131043 45 0 0.0 1.0 0.00 0.00 0.00 96 1011.3
20260503130554 45 0 0.0 2.0 0.00 0.00 0.00 96 1011.2
20260503130104 45 0 0.0 4.0 0.00 0.00 0.00 96 1011.1
20260503110544 46 0 0.0 2.0 0.00 0.00 0.00 96 1011.2
20260503100244 46 0 0.0 3.0 0.00 0.00 0.00 96 1011.1
20260503081556 46 310 1.0 4.0 0.00 0.00 0.00 96 1012.0
20260503081044 46 310 2.0 5.0 0.00 0.00 0.00 96 1011.9
20260503080544 46 309 2.0 5.0 0.00 0.00 0.00 96 1011.8
20260503072544 46 314 2.0 4.0 0.00 0.00 0.00 96 1012.0
20260503072044 46 310 2.0 5.0 0.00 0.00 0.00 96 1011.9
20260503071557 46 317 2.0 5.0 0.00 0.00 0.00 96 1012.0
20260503071044 46 317 2.0 5.0 0.00 0.00 0.00 96 1011.9
20260503070544 46 304 3.0 5.0 0.00 0.00 0.00 96 1012.0
20260503055044 46 317 3.0 5.0 0.00 0.00 0.00 96 1012.2
20260503054550 46 315 3.0 5.0 0.00 0.00 0.00 96 1012.2
20260503054044 46 313 3.0 8.0 0.00 0.00 0.00 96 1012.3
20260503053544 46 313 2.0 8.0 0.00 0.00 0.00 96 1012.3
20260503053053 46 313 4.0 8.0 0.00 0.00 0.00 95 1012.3
20260503052544 46 319 4.0 7.0 0.00 0.00 0.00 95 1012.2
20260503052044 46 323 3.0 7.0 0.00 0.00 0.00 96 1012.4
20260503051551 46 297 4.0 9.0 0.00 0.00 0.00 95 1012.5
20260503051043 46 303 4.0 9.0 0.00 0.00 0.00 96 1012.4
20260503050544 46 308 4.0 9.0 0.00 0.00 0.00 96 1012.4
20260503050054 46 317 4.0 8.0 0.00 0.00 0.00 96 1012.5
20260503045545 46 307 3.0 9.0 0.00 0.00 0.00 96 1012.4
20260503045045 46 301 4.0 9.0 0.00 0.00 0.00 96 1012.3
20260503044554 46 306 3.0 7.0 0.00 0.00 0.00 96 1012.3
20260503044047 46 315 3.0 9.0 0.00 0.00 0.00 96 1012.3
20260503043544 46 306 4.0 9.0 0.00 0.00 0.00 95 1012.2
20260503043051 46 311 4.0 9.0 0.00 0.00 0.00 95 1012.2
20260503042545 46 299 5.0 10.0 0.00 0.00 0.00 95 1012.2
20260503042044 46 304 5.0 10.0 0.00 0.00 0.00 95 1012.1
20260503041548 46 297 4.0 9.0 0.00 0.00 0.00 95 1012.1
20260503041047 46 317 4.0 9.0 0.00 0.00 0.00 95 1012.1
20260503040543 46 311 5.0 9.0 0.00 0.00 0.00 95 1012.1
20260503040049 46 310 5.0 9.0 0.00 0.00 0.00 95 1011.9
20260503035544 46 311 7.0 9.0 0.00 0.00 0.00 95 1011.9
20260503035045 46 313 5.0 10.0 0.00 0.00 0.00 95 1011.7
20260503034554 46 295 6.0 10.0 0.00 0.00 0.00 95 1011.8
20260503034047 46 294 5.0 9.0 0.00 0.00 0.00 95 1011.7
20260503033544 46 304 4.0 9.0 0.00 0.00 0.00 95 1011.7
20260503033051 46 302 4.0 9.0 0.00 0.00 0.00 95 1011.6
20260503032544 46 316 5.0 9.0 0.00 0.00 0.00 95 1011.6
20260503032044 46 312 5.0 9.0 0.00 0.00 0.00 95 1011.5
20260503031557 46 313 5.0 9.0 0.00 0.00 0.00 95 1011.5
20260503031044 46 290 4.0 9.0 0.00 0.00 0.00 95 1011.5
20260503030543 46 304 5.0 9.0 0.00 0.00 0.00 95 1011.5
20260503030049 46 296 4.0 8.0 0.00 0.00 0.00 95 1011.4
20260503025544 47 322 4.0 8.0 0.00 0.00 0.00 95 1011.5
20260503025045 47 292 4.0 8.0 0.00 0.00 0.00 95 1011.4
20260503024549 47 303 4.0 8.0 0.00 0.00 0.00 95 1011.3
20260503024044 47 301 4.0 8.0 0.00 0.00 0.00 94 1011.2
20260503023544 47 304 4.0 9.0 0.00 0.00 0.00 94 1011.2
20260503023057 47 316 4.0 9.0 0.00 0.00 0.00 94 1011.2
20260503022543 47 279 5.0 9.0 0.00 0.00 0.00 94 1011.1
20260503022043 47 305 5.0 10.0 0.00 0.00 0.00 94 1011.1
20260503021552 47 300 5.0 10.0 0.00 0.00 0.00 94 1011.2
20260503021044 48 311 5.0 10.0 0.00 0.00 0.00 94 1011.1
20260503020544 48 314 5.0 10.0 0.00 0.00 0.00 94 1011.1
20260503020056 48 304 5.0 10.0 0.00 0.00 0.00 94 1011.2
20260503015544 48 302 5.0 9.0 0.00 0.00 0.00 94 1011.1
20260503015044 48 301 5.0 9.0 0.00 0.00 0.00 93 1011.2
20260503014553 48 305 5.0 9.0 0.00 0.00 0.00 93 1011.3
20260503014044 49 317 5.0 9.0 0.00 0.00 0.00 94 1011.3
20260503013544 48 304 4.0 9.0 0.00 0.00 0.00 93 1011.3
20260503013050 49 311 4.0 9.0 0.00 0.00 0.00 93 1011.3
20260503012544 49 307 4.0 9.0 0.00 0.00 0.00 93 1011.4
20260503012046 49 304 4.0 9.0 0.00 0.00 0.00 93 1011.4
20260503011604 49 302 4.0 8.0 0.00 0.00 0.00 93 1011.4
20260503011043 49 309 4.0 9.0 0.00 0.00 0.00 93 1011.4
20260503010544 49 298 5.0 9.0 0.00 0.00 0.00 93 1011.4
20260503010052 49 304 5.0 10.0 0.00 0.00 0.00 93 1011.4
20260503005547 49 303 5.0 10.0 0.00 0.00 0.00 93 1011.4
20260503005045 49 323 5.0 10.0 0.00 0.00 0.00 92 1011.4
20260503004553 49 288 4.0 10.0 0.00 0.00 0.00 92 1011.4
20260503004046 50 315 5.0 10.0 0.00 0.00 0.00 92 1011.4
20260503003544 50 306 4.0 9.0 0.00 0.00 0.00 92 1011.5
20260503003106 50 316 5.0 9.0 0.00 0.00 0.00 92 1011.6
20260503002544 50 319 5.0 11.0 0.00 0.00 0.00 91 1011.6
20260503002044 50 309 6.0 11.0 0.00 0.00 0.00 91 1011.6
20260503001552 50 298 5.0 10.0 0.00 0.00 0.00 91 1011.6
20260503001043 50 320 5.0 10.0 0.00 0.00 0.00 90 1011.6
20260503000543 51 291 6.0 10.0 0.00 0.00 0.00 90 1011.7
20260503000109 51 310 5.0 10.0 0.00 0.00 0.00 90 1011.7
20260502235545 51 317 6.0 10.0 0.00 0.00 0.00 90 1011.7
20260502235043 51 305 5.0 11.0 0.00 0.00 0.00 89 1011.6
20260502234555 52 298 6.0 11.0 0.00 0.00 0.00 89 1011.7
20260502234043 52 314 6.0 11.0 0.00 0.00 0.00 89 1011.7
20260502233544 52 302 5.0 9.0 0.00 0.00 0.00 88 1011.8
20260502233050 52 292 4.0 10.0 0.00 0.00 0.00 88 1011.9
20260502232544 53 311 6.0 10.0 0.00 0.00 0.00 88 1011.9
20260502232044 53 302 5.0 10.0 0.00 0.00 0.00 87 1011.9
20260502231612 53 313 5.0 9.0 0.00 0.00 0.00 87 1011.9
20260502231044 53 310 5.0 9.0 0.00 0.00 0.00 87 1012.1
20260502230544 54 292 6.0 11.0 0.00 0.00 0.00 86 1012.2
20260502230048 54 314 5.0 11.0 0.00 0.00 0.00 86 1012.2
20260502225543 54 309 4.0 10.0 0.00 0.00 0.00 86 1012.5
20260502225043 54 301 5.0 9.0 0.00 0.00 0.00 86 1012.5
20260502224559 54 303 5.0 9.0 0.00 0.00 0.00 86 1012.5
20260502224044 54 311 4.0 9.0 0.00 0.00 0.00 86 1012.7
20260502223544 54 309 5.0 8.0 0.00 0.00 0.00 87 1012.8
20260502223055 54 319 4.0 9.0 0.00 0.00 0.00 88 1012.8
20260502222544 54 310 4.0 9.0 0.00 0.00 0.00 87 1012.8
20260502222043 54 306 4.0 9.0 0.00 0.00 0.00 87 1012.8
20260502221556 54 294 4.0 8.0 0.00 0.00 0.00 88 1012.9
20260502221044 54 318 4.0 8.0 0.00 0.00 0.00 89 1013.1
20260502220544 54 313 4.0 8.0 0.00 0.00 0.00 89 1013.1
20260502220050 53 302 3.0 8.0 0.00 0.00 0.00 90 1013.2